Weather History for Roatan, Honduras

Change the Weather History Date:

Friday, December 6, 2013

  Actual Average Record
Temperature  
Mean Temperature 82 °F -  
Max Temperature 86 °F 81 °F 87 °F (1996)
Min Temperature 79 °F 72 °F 67 °F (2012)
Cooling Degree Days 18    
Growing Degree Days 32 (Base 50)    
Moisture  
Dew Point 74 °F    
Average Humidity 73    
Maximum Humidity 79    
Minimum Humidity 63    
Precipitation  
Precipitation 0.00 in - - ()
Sea Level Pressure  
Sea Level Pressure 29.93 in    
Wind  
Wind Speed 16 mph ()    
Max Wind Speed 34 mph    
Max Gust Speed -    
Visibility 6.2 miles    
Events      
Averages and records for this station are not official NWS values.
T = Trace of Precipitation, MM = Missing Value Source: Averaged Metar Reports

Daily Weather History Graph

Daily Weather History Graph

Search for Another Location

Airport:

Trip Planner

Search our weather history database for the weather conditions in past years. The results will help you decide how hot, cold, wet, or windy it might be!

Date:

Astronomy

Dec. 06, 2013 Rise Set
Actual Time 6:01 AM CST 5:13 PM CST
Civil Twilight 5:38 AM CST 5:36 PM CST
Nautical Twilight 5:11 AM CST 6:03 PM CST
Astronomical Twilight 4:44 AM CST 6:29 PM CST
Moon 9:26 AM CST (12/6) 9:20 PM CST (12/6)
Length of Visible Light 11h 58m
Length of Day
11h 11m
Waxing Crescent, 19% of the Moon is Illuminated
Dec 6
Waxing Crescent
Dec 9
First Quarter
Dec 17
Full
Dec 25
Last Quarter
Jan 1
New

Hourly Weather History & Observations

Time (CST) Temp. Heat Index Dew Point Humidity Pressure Visibility Wind Dir Wind Speed Gust Speed Precip Events Conditions
6:00 AM 80 °F - 73 °F 74% 29.93 in 6 mi East 18.4 mph - -   Haze
6:00 AM 80.6 °F 85.4 °F 73.4 °F 79% 29.92 in 6.2 mi East 18.4 mph - N/A   Partly Cloudy
7:00 AM 80.6 °F 85.4 °F 73.4 °F 79% 29.95 in 6.2 mi East 17.3 mph - N/A   Partly Cloudy
8:00 AM 82.4 °F 88.2 °F 73.4 °F 74% 29.95 in 6.2 mi East 17.3 mph - N/A   Partly Cloudy
9:00 AM 84.2 °F 92.3 °F 75.2 °F 74% 29.98 in 6.2 mi East 19.6 mph - N/A   Partly Cloudy
10:00 AM 84.2 °F 92.3 °F 75.2 °F 74% 29.98 in 6.2 mi East 18.4 mph - N/A   Partly Cloudy
11:00 AM 86.0 °F 95.1 °F 75.2 °F 70% 29.95 in 6.2 mi East 17.3 mph - N/A   Partly Cloudy
12:00 PM 85 °F - 74 °F 64% 29.95 in 6 mi East 33.6 mph - -   Haze
12:00 PM 86.0 °F 95.1 °F 75.2 °F 70% 29.95 in 6.2 mi East 17.3 mph - N/A   Partly Cloudy
1:00 PM 86.0 °F 95.1 °F 75.2 °F 70% 29.89 in 6.2 mi East 18.4 mph - N/A   Partly Cloudy
2:00 PM 86.0 °F 95.1 °F 75.2 °F 70% 29.89 in 6.2 mi East 18.4 mph - N/A   Partly Cloudy
3:00 PM 85 °F - 74 °F 63% 29.89 in 6 mi ENE 17.3 mph - -   Haze
3:00 PM 86.0 °F 95.1 °F 75.2 °F 70% 29.89 in 6.2 mi East 18.4 mph - N/A   Partly Cloudy
4:00 PM 84.2 °F 90.9 °F 73.4 °F 70% 29.89 in 6.2 mi ENE 15.0 mph - N/A   Partly Cloudy
5:00 PM 82.4 °F 88.2 °F 73.4 °F 74% 29.89 in 6.2 mi ENE 13.8 mph - N/A   Partly Cloudy
6:00 PM 81 °F - 73 °F 70% 29.93 in 6 mi ENE 12.7 mph - -   Haze
6:00 PM 80.6 °F 85.4 °F 73.4 °F 79% 29.92 in 6.2 mi ENE 11.5 mph - N/A   Partly Cloudy
7:00 PM 80.6 °F 85.4 °F 73.4 °F 79% 29.95 in 6.2 mi ENE 11.5 mph - N/A   Partly Cloudy
8:00 PM 80.6 °F 85.4 °F 73.4 °F 79% 29.95 in 6.2 mi ENE 15.0 mph - N/A   Partly Cloudy